Weather History for Truckee-Tahoe, CA

Change the Weather History Date:

Wednesday, February 27, 2013

  Actual Average Record
Temperature  
Mean Temperature 28 °F -  
Max Temperature 46 °F 45 °F 63 °F (1991)
Min Temperature 10 °F 19 °F -23 °F (1962)
Degree Days  
Heating Degree Days 37    
Moisture  
Dew Point 13 °F    
Average Humidity 62    
Maximum Humidity 85    
Minimum Humidity 22    
Precipitation  
Precipitation 0.00 in - - ()
Snow  
Snow 0.00 in - - ()
Snow Depth 1.00 in    
Sea Level Pressure  
Sea Level Pressure 30.33 in    
Wind  
Wind Speed 3 mph (SSW)    
Max Wind Speed 14 mph    
Max Gust Speed 21 mph    
Visibility 10 miles    
Events      
Averages and records for this station are not official NWS values.
T = Trace of Precipitation, MM = Missing Value Source: NWS Daily Summary

Daily Weather History Graph

Daily Weather History Graph

Search for Another Location

Airport:

Trip Planner

Search our weather history database for the weather conditions in past years. The results will help you decide how hot, cold, wet, or windy it might be!

Date:

Astronomy

Feb. 27, 2013 Rise Set
Actual Time 6:35 AM PST 5:51 PM PST
Civil Twilight 6:08 AM PST 6:18 PM PST
Nautical Twilight 5:37 AM PST 6:49 PM PST
Astronomical Twilight 5:06 AM PST 7:20 PM PST
Moon 8:16 PM PST (2/27) 7:14 AM PST (2/27)
Length of Visible Light 12h 09m
Length of Day
11h 15m
Waning Gibbous, 96% of the Moon is Illuminated
Feb 27
Waning Gibbous
Mar 4
Last Quarter
Mar 11
New
Mar 19
First Quarter
Mar 27
Full

Hourly Weather History & Observations

Time (PST) Temp. Windchill Dew Point Humidity Pressure Visibility Wind Dir Wind Speed Gust Speed Precip Events Conditions
12:15 AM 19.4 °F 14.3 °F 8.6 °F 63% 30.28 in 10.0 mi ESE 3.5 mph - N/A   Clear
12:35 AM 15.8 °F 7.2 °F 10.4 °F 79% 30.28 in 10.0 mi SSE 5.8 mph - N/A   Clear
12:55 AM 17.6 °F - 8.6 °F 68% 30.28 in 10.0 mi Calm Calm - N/A   Clear
1:15 AM 17.6 °F 12.3 °F 10.4 °F 73% 30.29 in 10.0 mi WNW 3.5 mph - N/A   Clear
1:35 AM 15.8 °F 10.2 °F 8.6 °F 73% 30.30 in 10.0 mi SSE 3.5 mph - N/A   Clear
1:55 AM 14.0 °F 8.2 °F 8.6 °F 79% 30.30 in 10.0 mi South 3.5 mph - N/A   Clear
2:15 AM 14.0 °F - 8.6 °F 79% 30.30 in 10.0 mi Calm Calm - N/A   Clear
2:35 AM 15.8 °F - 8.6 °F 73% 30.30 in 10.0 mi Calm Calm - N/A   Clear
2:55 AM 15.8 °F - 8.6 °F 73% 30.30 in 10.0 mi Calm Calm - N/A   Clear
3:15 AM 14.0 °F - 8.6 °F 79% 30.30 in 10.0 mi Calm Calm - N/A   Clear
3:35 AM 15.8 °F - 8.6 °F 73% 30.31 in 10.0 mi Calm Calm - N/A   Clear
3:55 AM 14.0 °F - 8.6 °F 79% 30.31 in 10.0 mi Calm Calm - N/A   Clear
4:15 AM 15.8 °F - 8.6 °F 73% 30.31 in 10.0 mi Calm Calm - N/A   Clear
4:35 AM 14.0 °F - 6.8 °F 73% 30.31 in 10.0 mi Calm Calm - N/A   Clear
4:55 AM 14.0 °F - 8.6 °F 79% 30.32 in 10.0 mi Calm Calm - N/A   Clear
5:15 AM 12.2 °F - 8.6 °F 85% 30.32 in 10.0 mi Calm Calm - N/A   Clear
5:35 AM 12.2 °F - 6.8 °F 79% 30.33 in 10.0 mi Calm Calm - N/A   Clear
6:50 AM 10.4 °F - 6.8 °F 85% 30.34 in 10.0 mi Calm Calm - N/A   Partly Cloudy
7:55 AM 17.6 °F - 8.6 °F 68% 30.36 in 10.0 mi Calm Calm - N/A   Partly Cloudy
9:50 AM 26.6 °F - 10.4 °F 51% 30.35 in 10.0 mi Calm Calm - N/A   Scattered Clouds
10:55 AM 35.6 °F - 10.4 °F 35% 30.37 in 10.0 mi Calm Calm - N/A   Scattered Clouds
11:55 AM 39.2 °F - 19.4 °F 45% 30.32 in 10.0 mi Calm Calm - N/A   Partly Cloudy
12:55 PM 46.4 °F 41.5 °F 10.4 °F 23% 30.32 in 10.0 mi West 10.4 mph 20.7 mph N/A   Scattered Clouds
1:45 PM 46.4 °F 41.5 °F 10.4 °F 23% 30.31 in 10.0 mi WNW 10.4 mph - N/A   Partly Cloudy
2:55 PM 46.4 °F 41.1 °F 8.6 °F 22% 30.30 in 10.0 mi NW 11.5 mph 17.3 mph N/A   Partly Cloudy
3:45 PM 46.4 °F 40.4 °F 10.4 °F 23% 30.30 in 10.0 mi West 13.8 mph - N/A   Partly Cloudy
4:55 PM 46.4 °F 42.9 °F 14.0 °F 27% 30.30 in 10.0 mi West 6.9 mph - N/A   Clear
5:15 PM 44.6 °F 40.7 °F 12.2 °F 27% 30.31 in 10.0 mi WSW 6.9 mph - N/A   Clear
5:35 PM 42.8 °F 37.5 °F 14.0 °F 31% 30.30 in 10.0 mi West 9.2 mph - N/A   Clear
5:55 PM 41.0 °F 35.2 °F 14.0 °F 33% 30.31 in 10.0 mi West 9.2 mph - N/A   Clear
6:15 PM 41.0 °F 34.3 °F 17.6 °F 39% 30.31 in 10.0 mi WSW 11.5 mph - N/A   Clear
6:35 PM 39.2 °F 33.0 °F 19.4 °F 45% 30.32 in 10.0 mi West 9.2 mph 16.1 mph N/A   Clear
6:55 PM 33.8 °F 29.6 °F 17.6 °F 52% 30.34 in 10.0 mi SSW 4.6 mph - N/A   Clear
7:15 PM 32.0 °F 27.5 °F 17.6 °F 55% 30.34 in 10.0 mi SE 4.6 mph - N/A   Clear
7:35 PM 32.0 °F 28.7 °F 19.4 °F 60% 30.35 in 10.0 mi SE 3.5 mph - N/A   Clear
7:55 PM 30.2 °F 25.4 °F 19.4 °F 64% 30.36 in 10.0 mi SE 4.6 mph - N/A   Clear
8:15 PM 28.4 °F 24.6 °F 19.4 °F 69% 30.36 in 10.0 mi SSW 3.5 mph - N/A   Clear
8:35 PM 26.6 °F 21.2 °F 19.4 °F 74% 30.36 in 10.0 mi SSE 4.6 mph - N/A   Clear
8:55 PM 26.6 °F 22.6 °F 19.4 °F 74% 30.37 in 10.0 mi SSW 3.5 mph - N/A   Clear
9:15 PM 28.4 °F - 19.4 °F 69% 30.38 in 10.0 mi Calm Calm - N/A   Clear
9:35 PM 24.8 °F 19.1 °F 19.4 °F 80% 30.38 in 10.0 mi South 4.6 mph - N/A   Clear
9:55 PM 24.8 °F 20.5 °F 19.4 °F 80% 30.39 in 10.0 mi SE 3.5 mph - N/A   Clear
10:15 PM 26.6 °F - 17.6 °F 69% 30.39 in 10.0 mi Calm Calm - N/A   Scattered Clouds
10:35 PM 26.6 °F 22.6 °F 19.4 °F 74% 30.39 in 10.0 mi South 3.5 mph - N/A   Partly Cloudy
10:55 PM 26.6 °F - 19.4 °F 74% 30.39 in 10.0 mi Calm Calm - N/A   Clear
11:15 PM 26.6 °F - 19.4 °F 74% 30.40 in 10.0 mi Calm Calm - N/A   Clear
11:35 PM 26.6 °F - 21.2 °F 80% 30.40 in 10.0 mi Calm Calm - N/A   Clear
11:55 PM 26.6 °F - 19.4 °F 74% 30.40 in 10.0 mi Calm Calm - N/A   Mostly Cloudy